Date,TemperatureHighF,TemperatureAvgF,TemperatureLowF,DewpointHighF,DewpointAvgF,DewpointLowF,HumidityHigh,HumidityAvg,HumidityLow,PressureMaxIn,PressureMinIn,WindSpeedMaxMPH,WindSpeedAvgMPH,GustSpeedMaxMPH,PrecipitationSumIn
2013-1-1,29.4,18.4,10.0,15.7,9.0,3.9,84,68,46,30.50,30.35,6,2,7,0.00
2013-1-2,32.6,25.2,18.9,12.8,3.7,-4.0,60,40,27,30.53,30.34,14,3,17,0.00
2013-1-3,34.9,23.2,12.6,12.1,2.4,-2.9,54,41,27,30.61,30.40,5,1,5,0.00
2013-1-4,41.6,30.6,21.9,16.9,8.6,-1.6,59,40,29,30.43,30.17,4,1,5,0.01
2013-1-5,40.3,29.8,20.6,15.3,9.2,1.5,57,42,30,30.51,30.18,7,2,10,0.00
2013-1-6,44.3,29.4,16.9,15.0,7.6,0.7,64,42,17,30.47,30.06,4,1,5,0.00
2013-1-7,52.5,37.4,27.6,21.5,12.5,2.7,66,38,17,30.17,29.89,8,2,11,0.00
2013-1-8,52.8,39.9,27.6,21.5,17.1,11.0,64,41,24,30.27,29.84,7,2,11,0.00
2013-1-9,51.0,36.7,28.2,24.2,18.8,14.0,61,49,32,30.45,30.09,6,2,10,0.00
2013-1-10,38.9,34.1,29.5,20.4,17.4,11.2,61,50,34,30.10,29.55,5,2,6,0.00
2013-1-11,38.9,24.9,9.3,27.9,16.0,5.8,89,71,39,30.10,29.38,11,3,12,0.00
2013-1-12,15.4,8.5,1.5,6.9,2.7,-4.3,87,77,62,30.47,30.10,4,1,7,0.00
2013-1-13,14.4,5.9,-0.8,4.8,-1.6,-6.4,81,71,53,30.62,30.44,3,1,4,0.00
2013-1-14,15.4,5.6,-1.0,0.6,-4.3,-7.6,75,64,45,30.68,30.48,4,1,5,0.01
2013-1-15,35.3,17.8,-0.8,20.3,4.9,-10.1,73,58,38,30.61,30.26,4,1,5,0.00
2013-1-16,54.8,39.7,28.5,23.9,19.7,14.8,63,46,21,30.47,30.19,9,2,12,0.00
2013-1-17,48.6,34.7,26.6,21.6,17.5,14.4,66,51,27,30.62,30.31,5,2,9,0.00
2013-1-18,58.3,44.8,28.4,15.6,6.7,-1.0,53,23,10,30.33,29.99,11,2,14,0.00
2013-1-19,55.6,43.6,35.0,14.4,8.2,2.4,37,24,15,30.31,30.01,10,3,13,0.00
2013-1-20,47.7,34.8,20.5,13.9,10.1,4.8,71,38,19,30.49,30.15,6,2,10,0.00
2013-1-21,52.8,34.8,18.0,18.7,11.1,-0.1,77,44,16,30.44,30.09,5,2,10,0.00
2013-1-22,57.0,42.3,30.0,14.9,9.0,3.1,49,27,14,30.23,30.03,5,2,9,0.00
2013-1-23,59.0,45.9,36.6,13.8,4.7,-9.1,35,20,8,30.21,30.09,6,2,9,0.00
2013-1-24,60.2,42.5,26.9,25.3,14.5,7.7,53,35,14,30.20,29.99,5,1,9,0.00
2013-1-25,55.0,42.4,32.7,27.6,24.8,22.1,71,51,30,30.25,30.06,5,2,6,0.00
2013-1-26,51.1,41.7,33.1,28.5,25.8,23.1,69,54,37,30.11,29.77,5,2,6,0.00
2013-1-27,58.1,44.0,34.1,33.0,27.1,15.2,77,54,19,29.82,29.66,14,3,20,0.00
2013-1-28,48.6,35.8,25.6,29.6,23.6,16.4,85,62,38,29.87,29.58,10,2,13,0.00
2013-1-29,31.5,23.7,17.3,22.2,14.3,4.5,90,69,34,30.19,29.82,15,4,18,0.07
2013-1-30,40.5,24.8,9.5,17.5,7.5,-1.3,71,49,30,30.19,29.99,15,3,18,0.01
2013-1-31,40.8,31.9,22.9,23.3,20.5,17.7,82,64,43,30.37,30.15,6,2,9,0.00
2013-2-1,31.3,25.8,22.4,19.8,18.2,16.0,84,74,53,30.31,30.28,5,4,7,0.00
2013-2-2,55.4,37.6,24.7,23.1,17.5,12.7,73,48,19,30.44,30.26,8,2,13,0.00
2013-2-3,54.8,38.6,25.4,16.5,10.8,-1.6,60,35,15,30.32,29.93,5,2,7,0.00
2013-2-4,36.2,35.8,35.6,9.1,8.8,8.5,32,32,32,29.98,29.96,3,2,4,0.00
2013-2-5,53.3,41.4,28.4,20.4,15.8,8.8,53,36,23,30.11,29.85,8,3,10,0.00
2013-2-6,52.8,42.9,33.4,30.2,20.8,15.2,68,42,27,30.15,29.82,15,3,19,0.00
2013-2-7,46.8,35.6,23.3,25.3,18.3,12.3,78,52,31,30.30,30.12,5,2,10,0.00
2013-2-8,49.6,33.5,21.4,17.2,11.0,4.3,66,43,16,30.16,29.77,5,2,7,0.00
2013-2-9,41.9,30.3,23.3,26.4,17.6,10.4,88,61,39,29.86,29.65,9,3,13,0.00
2013-2-10,34.9,28.2,18.8,17.8,12.1,6.9,72,52,35,30.27,29.70,16,8,20,0.00
2013-2-11,28.4,21.9,14.3,15.5,11.6,9.0,82,65,48,30.35,30.22,4,2,5,0.00
2013-2-12,43.8,28.0,15.2,14.1,4.5,-4.0,71,42,16,30.34,30.15,6,2,8,0.00
2013-2-13,51.1,33.2,18.4,13.8,9.3,5.1,61,39,19,30.18,29.99,13,3,19,0.00
2013-2-14,32.7,27.1,23.1,23.0,18.7,9.7,87,71,39,30.53,30.04,9,2,16,0.00
2013-2-15,40.8,28.7,18.8,21.2,13.7,3.7,89,58,23,30.58,30.38,20,5,31,0.03
2013-2-16,58.6,37.1,18.4,20.0,12.4,5.2,78,44,14,30.38,30.11,12,4,19,0.00
2013-2-27,23.6,23.0,22.2,11.1,10.3,9.1,59,58,56,30.46,30.40,3,2,5,0.00
2013-2-28,39.8,30.4,17.2,15.6,7.6,-1.1,63,39,27,30.51,30.27,13,3,17,0.00
2013-3-1,40.8,34.9,26.7,25.9,19.2,10.3,70,53,32,30.47,30.30,11,2,12,0.00
2013-3-2,53.9,42.8,31.5,28.3,23.3,19.2,67,47,29,30.43,30.02,5,1,7,0.00
2013-3-3,61.0,47.5,37.0,28.0,24.2,19.8,63,42,21,30.02,29.59,13,3,21,0.00
2013-3-4,47.3,33.5,19.1,25.9,20.9,9.5,77,61,40,30.48,29.59,8,3,11,0.00
2013-3-5,37.9,25.4,12.3,19.9,13.7,6.5,79,62,33,30.59,30.31,6,2,10,0.01
2013-3-6,53.1,36.0,21.0,29.0,22.6,15.5,83,61,27,30.31,29.87,8,2,13,0.00
2013-3-7,60.7,46.1,31.3,29.4,24.3,20.4,69,45,23,30.03,29.87,7,3,11,0.00
2013-3-8,46.8,38.1,32.1,30.3,27.8,23.6,77,67,51,30.03,29.76,5,2,6,0.00
2013-3-9,36.5,32.9,27.0,31.4,24.7,14.6,94,73,48,30.26,29.69,18,8,21,0.10
2013-3-10,50.2,37.0,24.2,21.6,15.3,10.4,65,43,24,30.29,30.09,19,9,28,0.00
2013-3-11,55.7,40.4,29.7,27.7,20.0,11.8,89,49,21,30.22,29.89,18,6,35,0.00
2013-3-12,36.2,30.0,23.9,27.7,23.8,19.4,91,78,63,30.51,30.22,6,2,16,0.11
2013-3-13,61.0,44.3,25.7,33.6,26.8,21.4,86,55,27,30.43,30.18,11,2,15,0.00
2013-3-14,68.3,55.6,43.8,31.0,26.1,20.2,55,34,19,30.26,29.98,20,2,20,0.00
2013-3-15,76.7,60.5,44.8,28.1,21.6,16.0,49,24,11,30.00,29.72,25,5,25,0.00
2013-3-16,55.9,46.4,38.5,33.9,29.0,25.8,65,51,33,30.00,29.72,17,2,18,0.00
2013-3-17,58.9,40.7,29.8,38.7,21.1,-3.8,81,49,19,29.91,29.52,30,5,30,0.01
2013-3-18,49.9,39.4,26.3,15.4,3.8,-6.1,34,23,14,30.00,29.86,37,8,37,0.00
2013-3-19,53.5,41.1,24.2,17.4,1.7,-18.8,73,24,5,30.48,29.94,31,6,31,0.00
2013-3-20,46.0,32.0,18.4,21.7,17.4,12.7,83,57,31,30.46,29.83,9,1,9,0.00
2013-3-21,55.4,40.8,31.9,32.3,16.4,-2.6,61,40,14,29.92,29.55,32,6,32,0.00
2013-3-22,40.1,30.3,23.9,27.5,17.0,7.5,91,61,33,30.09,29.85,18,4,18,0.00
2013-3-23,23.9,19.6,15.1,20.9,15.9,8.5,91,85,72,30.50,30.08,19,5,19,0.00
2013-3-24,30.1,18.5,8.6,18.6,10.3,3.4,83,71,50,30.53,30.36,21,4,21,0.01
2013-3-25,31.9,21.5,12.6,16.7,12.4,7.9,88,69,46,30.59,30.43,11,2,11,0.03
2013-3-26,40.8,30.0,14.9,30.2,17.3,8.1,82,60,37,30.47,30.12,7,2,7,0.00
2013-3-27,51.9,41.0,33.1,35.6,31.4,27.9,87,70,41,30.19,30.06,14,2,14,0.00
2013-3-28,64.0,47.3,32.1,35.4,30.0,21.8,86,56,22,30.19,30.02,13,2,13,0.00
2013-3-29,67.4,53.1,40.3,36.3,28.4,22.1,68,41,18,30.13,29.95,25,4,25,0.00
2013-3-30,67.9,47.5,37.9,39.8,30.4,21.7,87,56,18,30.23,29.94,29,4,29,0.01
2013-3-31,68.9,49.6,30.9,36.5,26.7,8.4,90,50,11,30.21,29.88,16,2,16,0.01
2013-4-1,50.7,39.8,27.8,33.3,27.7,21.5,81,63,45,30.23,30.09,11,2,11,0.01
2013-4-2,40.7,37.7,35.2,37.1,32.9,29.4,87,83,73,30.22,30.11,10,2,10,0.07
2013-4-3,61.6,46.5,35.0,39.7,34.5,28.2,95,67,35,30.23,30.00,17,2,17,0.01
2013-4-4,68.8,54.9,41.3,35.4,29.6,23.0,66,41,21,30.16,29.85,15,3,15,0.00
2013-4-5,73.3,54.6,45.5,35.8,29.6,22.6,56,40,15,29.87,29.56,21,5,28,0.00
2013-4-6,63.7,53.5,40.2,27.5,23.1,20.0,49,31,20,29.91,29.76,11,3,14,0.00
2013-4-7,63.9,50.9,38.2,37.5,31.5,23.9,83,51,24,29.82,29.60,13,3,19,0.03
2013-4-8,67.1,44.3,26.0,34.4,29.3,20.8,83,59,26,29.86,29.36,25,7,34,0.00
2013-4-9,25.8,19.5,13.4,21.3,11.8,5.9,83,72,53,30.53,29.84,16,6,23,0.00
2013-4-10,29.1,19.2,7.7,20.6,12.0,3.7,87,74,58,30.52,30.17,6,2,13,0.00
2013-4-11,55.0,36.3,17.5,33.2,24.4,12.9,87,66,30,30.17,29.86,17,4,22,0.01
2013-4-12,52.8,41.3,31.5,33.5,30.3,26.6,86,66,45,30.06,29.87,13,3,21,0.00
2013-4-13,61.6,46.0,31.8,37.7,30.3,20.0,91,61,20,29.97,29.40,18,4,25,0.15
2013-4-14,45.2,41.6,38.5,35.4,8.1,-4.4,80,26,15,29.79,29.44,17,10,34,0.01
2013-4-15,38.5,27.0,22.5,26.1,21.3,10.9,91,81,34,30.27,29.77,8,2,14,0.17
2013-4-16,31.8,26.8,22.2,28.1,24.1,19.7,93,90,84,30.26,30.06,6,1,9,0.07
2013-4-17,30.6,25.0,18.8,29.3,22.4,14.5,95,90,81,30.43,30.12,13,5,17,0.00
2013-4-18,37.5,26.1,13.6,20.3,13.3,6.6,83,61,32,30.42,30.29,17,4,25,0.35
2013-4-19,52.6,38.1,23.0,27.5,17.3,6.9,64,44,26,30.31,29.99,6,2,7,0.06
2013-4-20,56.7,43.9,34.9,34.0,28.5,22.2,75,56,27,30.05,29.92,6,2,16,0.00
2013-4-21,60.5,48.2,37.3,34.6,29.8,21.3,76,52,26,30.10,29.94,6,2,7,0.00
2013-4-22,46.4,32.4,22.9,38.0,27.2,20.4,92,82,57,30.53,29.86,14,4,20,0.07
2013-4-23,35.0,26.3,18.0,21.2,18.0,14.6,92,72,45,30.55,30.34,5,2,7,0.35
2013-4-24,55.3,39.1,24.1,27.1,19.2,11.8,75,48,18,30.39,30.17,8,2,11,0.00
2013-4-25,65.0,47.6,31.5,26.8,21.6,13.9,64,40,15,30.24,29.90,5,2,10,0.00
2013-4-26,69.4,56.7,41.8,26.2,19.0,10.9,49,25,12,30.12,29.90,7,3,11,0.00
2013-4-27,76.7,60.1,38.5,28.3,20.5,13.3,55,25,10,30.14,29.83,14,5,18,0.00
2013-4-28,79.9,66.2,51.1,34.2,24.1,17.0,33,21,12,29.85,29.64,16,5,21,0.00
2013-4-29,80.1,65.4,48.3,38.8,28.8,17.7,60,30,11,29.71,29.39,13,3,17,0.00
2013-4-30,62.9,47.6,32.5,41.9,32.9,23.4,93,61,22,30.11,29.40,13,4,17,0.45
2013-5-1,32.7,31.9,31.0,31.2,30.5,29.7,95,95,94,30.34,30.10,4,1,4,0.03
2013-5-2,43.6,33.4,18.6,25.5,20.0,13.5,83,60,33,30.97,30.56,5,2,4,0.29
2013-5-3,59.0,44.7,28.4,31.5,24.6,19.8,73,47,25,30.56,30.10,7,2,7,0.29
2013-5-4,59.8,48.5,38.6,32.2,28.3,22.6,72,47,28,30.23,30.07,11,2,11,0.00
2013-5-5,58.8,47.6,34.3,30.3,25.3,19.2,70,43,27,30.25,30.04,14,2,14,0.00
2013-5-6,67.1,53.5,37.8,37.4,30.5,25.3,72,45,21,30.09,29.81,12,3,12,0.00
2013-5-7,69.3,55.0,44.3,43.8,38.6,32.1,72,55,27,29.92,29.78,18,2,18,0.05
2013-5-8,69.8,53.3,45.8,45.2,40.9,34.3,90,66,30,30.05,29.82,19,3,19,0.95
2013-5-9,59.8,51.6,43.6,45.9,40.7,36.0,88,67,48,30.23,29.97,18,4,18,0.42
2013-5-10,68.8,55.3,42.2,44.8,36.5,26.5,84,54,21,30.27,30.10,24,3,24,0.01
2013-5-11,66.6,55.9,47.4,47.6,41.2,35.1,79,58,40,30.34,30.13,16,2,16,0.03
2013-5-12,79.2,66.0,48.0,42.7,34.9,28.4,80,35,16,30.16,29.86,17,3,17,0.03
2013-5-13,88.0,73.1,57.3,43.8,36.8,28.9,48,28,15,29.97,29.73,22,2,22,0.00
2013-5-14,84.7,72.0,59.5,44.2,36.8,30.1,46,29,16,29.80,29.60,22,3,22,0.00
2013-5-15,83.4,67.4,55.6,52.6,41.1,32.1,77,42,18,29.80,29.65,23,4,23,0.03
2013-5-16,81.8,66.2,51.7,52.4,43.5,29.0,86,50,17,29.80,29.56,21,2,21,0.03
2013-5-17,86.1,70.5,52.5,49.3,38.4,14.6,73,37,11,29.70,29.48,18,3,18,0.00
2013-5-18,77.7,66.0,55.0,38.9,29.8,14.9,45,27,11,29.69,29.48,28,5,28,0.00
2013-5-19,70.3,60.7,51.0,36.6,30.6,24.5,49,33,21,29.70,29.59,27,5,27,0.00
2013-5-20,64.8,54.7,47.8,44.2,38.7,31.0,87,56,32,29.94,29.69,31,6,31,0.02
2013-5-21,69.6,57.9,44.6,37.7,30.1,26.2,60,36,21,30.00,29.74,25,6,25,0.02
2013-5-22,76.3,59.5,41.9,45.9,36.9,31.1,74,46,24,29.94,29.73,14,2,14,0.00
2013-5-23,68.8,55.6,47.3,50.1,46.1,43.4,89,72,47,30.03,29.86,17,3,17,0.00
2013-5-24,85.1,64.8,46.5,52.2,44.7,28.6,95,57,14,29.92,29.71,10,2,10,0.00
2013-5-25,86.5,70.7,54.5,55.8,45.1,27.0,86,47,13,29.80,29.61,13,2,13,0.00
2013-5-26,85.5,70.7,56.3,48.9,35.9,22.9,58,30,12,29.70,29.56,18,2,18,0.00
2013-5-27,83.5,68.9,50.2,36.8,30.4,17.0,57,26,9,29.69,29.50,22,3,22,0.06
2013-5-28,80.3,64.0,49.5,46.3,39.3,29.7,67,43,17,29.67,29.37,31,3,31,0.06
2013-5-29,64.0,54.8,46.4,48.7,42.8,28.0,94,67,33,29.66,29.42,19,3,19,0.58
2013-5-30,69.3,59.3,47.9,37.7,28.7,19.8,60,34,17,29.72,29.49,33,7,33,0.58
2013-5-31,69.9,60.3,51.3,34.9,21.8,17.0,52,24,15,29.92,29.70,29,8,29,0.00
2013-6-1,70.1,59.3,47.9,41.3,34.0,29.5,57,40,23,30.12,29.92,25,6,25,0.00
2013-6-2,80.7,63.3,42.5,43.1,36.0,30.7,75,40,18,30.12,29.60,18,2,18,0.00
2013-6-3,86.3,69.5,52.2,49.7,35.6,19.3,62,33,12,29.69,29.50,33,3,33,0.00
2013-6-4,73.9,61.4,49.8,49.4,40.3,15.6,76,48,17,30.10,29.67,23,4,23,0.00
2013-6-5,63.9,53.8,47.6,46.3,42.2,38.7,75,65,49,30.20,30.02,12,1,12,0.00
2013-6-6,81.4,63.9,45.2,48.5,40.2,25.3,89,49,18,30.08,29.87,10,1,10,0.00
2013-6-7,80.7,67.5,52.6,49.6,42.4,33.9,66,42,25,29.92,29.53,14,2,14,0.01
2013-6-8,78.6,68.3,59.3,48.7,40.9,33.3,61,38,25,29.86,29.47,27,5,27,0.01
2013-6-9,87.8,70.8,50.5,47.7,40.7,32.6,72,39,17,29.92,29.63,13,2,13,0.00
2013-6-10,95.4,77.9,60.9,54.3,39.0,23.3,52,28,9,29.67,29.53,26,2,26,0.00
2013-6-11,95.6,78.7,60.1,49.4,33.4,17.2,52,24,6,29.68,29.47,28,5,28,0.00
2013-6-12,89.5,75.3,58.3,53.6,35.2,20.7,69,25,14,29.89,29.68,15,3,15,0.00
2013-6-13,81.1,65.6,55.6,57.2,52.7,45.4,84,65,39,29.96,29.69,13,1,13,0.00
2013-6-14,89.9,72.3,56.2,51.2,44.1,27.3,75,42,12,29.79,29.63,17,2,17,0.00
2013-6-15,79.4,67.6,54.7,54.8,46.7,37.8,80,49,27,29.91,29.72,16,2,16,0.00
2013-6-16,80.7,67.8,54.8,60.1,46.8,30.1,88,53,19,29.97,29.83,26,2,26,0.00
2013-6-17,78.5,64.6,53.2,53.9,48.8,38.8,80,58,26,30.03,29.85,16,2,16,0.00
2013-6-18,82.8,67.4,56.2,54.3,48.9,38.7,79,55,21,29.98,29.66,16,2,16,0.06
2013-6-19,91.2,71.2,51.1,55.7,44.4,18.4,89,48,10,29.85,29.42,13,2,13,0.06
2013-6-20,86.3,72.8,56.6,50.8,36.2,23.7,63,29,12,29.68,29.48,15,3,15,0.00
2013-6-21,91.0,75.4,60.2,60.2,46.5,26.5,81,43,10,29.68,29.49,18,2,18,0.00
2013-6-22,85.7,69.0,55.0,54.8,47.3,33.0,77,49,17,29.76,29.51,20,3,20,0.00
2013-6-23,81.6,66.7,50.4,51.1,44.7,37.7,79,48,25,29.88,29.65,15,2,15,0.00
2013-6-24,91.6,73.8,55.3,51.5,39.5,17.6,74,36,7,29.70,29.47,19,2,19,0.00
2013-6-25,88.8,77.6,63.9,43.9,34.8,24.1,32,22,14,29.70,29.49,23,3,23,0.00
2013-6-26,93.4,78.9,59.8,47.9,38.5,32.4,52,25,13,29.85,29.70,12,2,12,0.00
2013-6-27,95.4,83.6,70.4,46.4,39.5,30.3,38,22,11,29.92,29.71,15,3,15,0.00
2013-6-28,94.0,77.9,59.5,58.7,50.1,43.5,78,40,21,30.02,29.81,19,3,19,0.15
2013-6-29,56.2,56.2,56.2,50.4,50.4,50.4,81,81,81,30.04,30.04,3,3,0,0.00
2013-6-30,56.2,56.2,56.2,50.4,50.4,50.4,81,81,81,30.04,30.04,3,3,0,0.00
2013-7-1,77.0,65.3,54.5,57.2,52.7,50.0,91,65,43,30.14,30.03,5,1,0,0.00
2013-7-2,82.4,69.1,54.5,56.3,51.2,43.2,92,56,26,30.09,29.91,16,2,16,0.00
2013-7-3,85.5,70.1,54.5,53.8,47.0,40.5,74,47,25,29.93,29.70,11,1,11,0.00
2013-7-4,91.4,76.9,61.8,53.7,45.2,39.2,62,35,17,29.75,29.59,13,2,13,0.00
2013-7-5,86.1,72.6,64.5,61.4,52.8,43.9,79,51,28,29.71,29.55,22,2,22,0.08
2013-7-6,88.6,80.6,73.3,58.1,48.9,43.6,59,34,23,29.69,29.62,10,2,10,0.03
2013-7-7,84.0,73.8,63.4,64.9,54.7,45.0,72,53,31,29.84,29.63,25,2,25,0.03
2013-7-8,92.1,74.7,59.5,59.0,51.0,38.8,84,49,18,29.86,29.74,26,2,26,0.00
2013-7-9,94.5,79.0,64.5,52.9,43.7,34.3,54,31,14,29.92,29.78,20,2,20,0.00
2013-7-10,87.0,73.7,59.9,61.8,53.4,45.1,71,50,30,29.98,29.71,12,1,12,0.00
2013-7-11,95.9,77.3,60.2,59.6,51.9,39.9,76,46,15,29.90,29.55,26,3,26,0.00
2013-7-12,90.1,75.1,67.3,63.0,53.0,42.0,80,49,26,29.83,29.54,21,2,21,0.05
2013-7-13,89.3,72.0,62.7,64.4,58.8,48.6,88,67,28,29.97,29.75,22,1,22,0.21
2013-7-14,80.5,69.9,59.6,63.4,58.7,54.1,88,69,47,30.05,29.77,17,2,17,0.00
2013-7-15,78.5,69.9,63.1,65.8,60.7,48.5,97,75,51,29.98,29.85,16,2,16,0.16
2013-7-16,83.2,68.3,52.8,56.3,49.2,43.8,84,54,28,30.03,29.92,18,2,18,0.00
2013-7-17,87.2,71.5,56.6,61.4,54.1,46.8,96,60,27,30.04,29.83,10,1,10,0.00
2013-7-18,91.2,71.0,61.2,60.8,54.8,45.6,87,60,26,30.00,29.76,25,4,25,0.24
2013-7-19,79.4,70.6,61.3,61.8,57.4,52.0,87,64,46,30.00,29.85,11,2,11,0.00
2013-7-20,83.8,69.5,57.3,61.9,55.4,48.3,95,64,35,29.87,29.72,24,1,24,0.00
2013-7-21,83.8,69.2,54.1,62.4,55.4,48.5,90,63,36,29.85,29.64,13,2,13,0.00
2013-7-22,89.3,77.1,60.7,62.8,50.9,31.3,74,42,19,29.74,29.63,12,2,12,0.00
2013-7-23,85.3,74.8,63.1,59.9,50.2,21.2,68,44,16,29.90,29.63,11,1,11,0.00
2013-7-24,83.8,70.7,59.5,62.2,54.0,37.6,83,59,20,30.02,29.77,25,3,25,0.00
2013-7-25,77.2,65.3,57.2,61.9,55.7,51.2,95,72,50,30.10,29.85,15,1,15,0.18
2013-7-26,85.3,70.1,58.3,58.0,50.4,42.3,79,53,25,30.11,29.90,21,2,21,0.00
2013-7-27,73.9,63.8,53.8,59.1,53.7,48.2,93,70,51,29.98,29.86,11,1,11,0.02
2013-7-28,72.0,61.9,57.5,63.0,58.4,55.1,96,89,61,29.94,29.75,11,1,11,0.17
2013-7-29,76.0,65.5,58.7,62.2,54.3,40.2,98,72,31,30.00,29.76,16,2,18,0.01
2013-7-30,85.9,71.6,57.6,55.5,50.4,44.2,81,50,26,30.04,29.90,18,1,18,0.00
2013-7-31,88.0,71.9,57.8,62.6,52.0,42.8,81,53,23,30.12,29.93,13,1,13,0.02
2013-8-1,85.3,70.8,56.5,60.9,53.4,42.9,90,58,25,29.99,29.70,21,2,21,0.03
2013-8-2,89.9,73.4,60.2,64.4,53.6,45.4,80,53,23,29.81,29.67,11,1,11,0.05
2013-8-3,86.3,69.2,61.0,66.3,58.3,49.8,93,71,34,30.05,29.76,23,3,23,0.10
2013-8-4,83.8,69.9,55.0,59.7,52.8,42.8,88,57,28,30.02,29.83,12,2,12,0.00
2013-8-5,88.0,72.5,60.1,53.7,48.1,39.1,71,44,21,29.91,29.74,16,3,16,0.00
2013-8-6,87.4,71.4,57.0,55.6,47.0,31.2,71,45,17,29.82,29.73,26,2,26,0.00
2013-8-7,72.1,64.7,57.3,58.7,53.4,47.9,95,68,51,29.95,29.82,7,2,7,0.00
2013-8-8,72.7,64.3,57.5,59.8,56.0,47.5,97,76,53,30.03,29.86,13,1,13,0.00
2013-8-9,79.2,65.2,52.0,54.3,48.6,40.3,84,57,27,30.06,29.95,20,2,20,0.03
2013-8-10,85.7,69.1,54.8,53.4,46.7,38.3,86,50,20,30.08,29.88,16,2,16,0.00
2013-8-11,79.6,69.6,61.2,52.9,46.7,38.9,67,45,27,30.01,29.89,17,2,17,0.00
2013-8-12,83.2,67.4,55.7,58.1,49.5,36.1,86,56,20,30.11,29.91,17,2,17,0.00
2013-8-13,80.3,65.7,51.3,55.3,46.8,39.8,85,53,27,30.10,29.93,21,2,21,0.00
2013-8-14,80.9,66.7,54.2,55.1,47.9,36.9,87,55,23,30.07,29.91,18,2,18,0.00
2013-8-15,84.1,69.0,53.8,53.5,46.6,42.1,72,47,25,30.02,29.87,11,1,11,0.00
2013-8-16,88.4,73.1,58.6,56.1,47.3,33.9,69,44,16,29.97,29.85,12,1,12,0.00
2013-8-17,91.0,74.0,58.7,60.1,51.5,37.5,81,51,17,29.92,29.75,11,1,11,0.00
2013-8-18,89.7,73.2,58.7,59.8,49.0,33.8,79,47,16,29.92,29.75,26,3,26,0.00
2013-8-19,92.7,76.6,57.3,55.2,44.6,35.8,68,36,15,29.90,29.72,11,2,11,0.00
2013-8-20,97.3,79.1,61.3,52.2,42.0,29.4,56,29,11,29.76,29.66,16,2,16,0.00
2013-8-21,89.3,76.8,67.1,53.3,47.3,41.6,58,36,21,29.90,29.71,15,2,15,0.00
2013-8-22,81.6,71.2,58.7,60.7,54.7,43.4,82,58,27,30.01,29.86,15,1,15,0.00
2013-8-23,86.3,71.8,57.6,60.0,53.3,44.9,93,56,27,29.94,29.73,18,2,18,0.00
2013-8-24,88.2,73.9,59.0,53.8,47.7,42.8,71,42,23,29.85,29.70,23,2,23,0.00
2013-8-25,88.4,75.2,62.4,54.4,48.7,41.6,62,42,21,29.91,29.76,16,2,16,0.00
2013-8-26,90.3,75.8,62.0,58.2,53.1,48.0,73,48,25,29.91,29.80,17,2,17,0.00
2013-8-27,91.4,79.1,64.2,56.8,51.4,47.6,63,40,25,29.89,29.72,14,2,14,0.00
2013-8-28,91.0,78.3,64.5,55.5,48.2,36.7,60,37,18,29.84,29.74,12,1,12,0.00
2013-8-29,93.2,78.7,64.0,52.8,45.6,41.4,52,32,19,29.90,29.78,18,2,18,0.00
2013-8-30,87.8,76.8,62.0,59.3,47.5,40.9,60,37,21,29.93,29.76,19,2,19,0.00
2013-8-31,89.0,74.3,61.2,54.0,48.2,39.3,67,42,19,29.89,29.75,21,3,21,0.00
2013-9-1,79.4,69.0,62.1,58.4,53.6,47.7,79,58,48,30.01,29.87,13,2,13,0.00
2013-9-2,89.3,72.5,56.6,58.7,52.9,41.4,89,55,26,29.97,29.75,22,2,22,0.00
2013-9-3,90.7,71.0,61.6,56.3,50.8,48.4,64,50,27,29.90,29.76,13,2,13,0.00
2013-9-4,76.3,74.5,70.9,52.2,49.7,47.1,51,42,36,29.88,29.85,4,0,4,0.00
2013-9-5,89.0,76.6,63.9,57.5,51.7,43.9,73,45,25,29.97,29.81,13,1,13,0.00
2013-9-6,94.5,79.3,68.3,58.4,48.1,41.8,59,36,17,29.89,29.74,18,3,18,0.00
2013-9-7,90.7,76.6,63.9,53.5,47.5,40.9,63,38,19,29.89,29.74,10,1,10,0.00
2013-9-8,89.0,74.9,59.8,53.6,46.4,41.2,64,38,21,29.80,29.58,14,2,14,0.00
2013-9-9,83.0,67.0,58.7,58.5,53.1,48.9,93,64,33,29.86,29.59,22,3,22,0.38
2013-9-10,65.5,60.3,57.0,59.0,57.0,55.1,97,89,70,30.09,29.78,9,1,9,0.42
2013-9-11,63.7,60.6,58.9,62.2,59.4,57.8,97,96,94,30.13,30.04,13,1,13,1.59
2013-9-12,62.3,59.6,58.3,61.5,58.9,57.3,98,98,95,30.18,30.08,14,2,14,1.25
2013-9-13,72.7,63.4,58.3,63.3,59.0,55.3,98,87,58,30.08,29.75,16,1,16,0.21
2013-9-14,77.4,64.3,55.6,58.5,55.5,46.4,95,75,37,29.89,29.69,16,2,16,0.14
2013-9-15,58.9,56.1,52.9,56.6,54.7,52.1,98,95,88,30.22,29.84,10,1,10,1.29
2013-9-16,69.4,58.9,52.6,57.7,54.2,51.8,98,86,60,30.21,29.92,10,1,10,0.19
2013-9-17,82.4,66.7,53.1,59.6,50.6,40.9,97,62,25,29.94,29.59,14,1,14,0.00
2013-9-18,84.3,70.2,58.7,49.6,44.2,35.8,68,42,19,29.67,29.57,32,4,32,0.00
2013-9-19,64.8,57.2,49.2,49.8,42.2,34.3,87,58,39,30.11,29.67,14,2,14,0.06
2013-9-20,69.8,56.9,42.8,48.2,41.8,31.7,86,60,27,30.17,29.91,11,1,11,0.00
2013-9-21,79.9,64.2,47.9,50.5,44.3,38.4,83,52,23,29.93,29.60,11,1,11,0.00
2013-9-22,79.2,63.3,53.9,51.9,45.7,38.6,87,57,26,29.61,29.41,27,3,27,0.11
2013-9-23,67.3,59.1,49.9,51.2,37.2,26.9,94,48,24,29.94,29.39,33,8,33,0.21
2013-9-24,72.3,58.0,45.5,44.9,38.0,31.0,72,49,27,30.06,29.75,12,1,12,0.00
2013-9-25,75.1,60.5,44.9,47.9,42.4,31.4,79,54,27,29.74,29.33,10,2,10,0.00
2013-9-26,66.1,56.2,44.3,47.0,42.9,38.8,85,63,41,29.70,29.40,12,2,12,0.00
2013-9-27,54.8,46.7,38.6,50.0,44.4,37.6,97,92,73,30.06,29.59,10,1,10,0.27
2013-9-28,63.7,49.0,35.9,40.1,35.7,29.4,97,64,30,30.17,30.05,9,1,9,0.00
2013-9-29,71.8,57.2,41.6,43.2,35.2,22.7,75,47,21,30.07,29.78,10,1,10,0.00
2013-9-30,73.2,62.7,49.8,50.1,37.7,24.4,62,40,27,29.80,29.60,8,1,11,0.00
2013-10-1,69.3,59.3,48.3,44.5,38.3,28.6,67,47,25,30.01,29.70,15,2,15,0.00
2013-10-2,75.1,59.3,47.6,44.0,39.7,33.1,77,52,23,29.90,29.75,14,1,14,0.00
2013-10-3,60.9,50.3,40.6,47.0,40.9,34.9,96,72,51,29.83,29.69,13,1,13,0.42
2013-10-4,45.4,38.4,31.8,43.5,29.4,20.6,96,72,44,30.35,29.75,32,10,32,0.21
2013-10-5,60.4,48.5,35.8,26.5,13.8,5.4,51,27,13,30.27,30.10,29,6,29,0.00
2013-10-6,68.1,53.2,35.5,37.1,27.2,10.4,68,39,18,30.31,30.06,16,2,16,0.00
2013-10-7,66.4,54.7,46.0,40.3,36.1,28.9,72,51,27,30.14,29.77,6,2,6,0.00
2013-10-8,75.6,60.8,48.6,43.2,34.1,27.1,58,38,18,29.78,29.58,12,2,12,0.00
2013-10-9,62.7,55.0,47.6,43.1,38.2,30.2,74,54,37,29.92,29.64,10,2,10,0.00
2013-10-10,56.5,48.7,42.5,45.9,41.7,34.2,93,77,54,29.88,29.47,22,1,22,0.04
2013-10-11,59.3,51.9,41.2,38.6,31.6,25.6,81,48,29,30.05,29.42,26,4,26,0.00
2013-10-12,53.3,45.3,40.8,40.4,36.9,34.0,86,73,54,30.25,30.04,8,1,8,0.00
2013-10-13,59.3,47.3,36.3,43.2,38.2,32.8,89,72,51,30.20,29.84,10,2,10,0.00
2013-10-14,50.7,46.0,38.2,43.0,34.8,22.8,85,66,51,30.22,29.78,30,8,30,0.00
2013-10-15,45.7,38.5,31.9,26.6,23.0,19.6,77,54,41,30.39,30.22,18,4,18,0.00
2013-10-16,54.7,39.3,26.6,29.8,25.9,21.2,87,62,28,30.31,30.06,9,1,9,0.00
2013-10-17,45.5,39.3,32.5,33.2,29.2,24.4,91,67,53,30.23,30.06,10,2,10,0.00
2013-10-18,46.0,35.6,27.3,32.6,28.0,21.3,96,76,44,30.34,30.20,14,2,14,0.35
2013-10-19,59.9,45.7,31.8,31.8,25.8,18.3,73,47,28,30.23,29.89,8,1,8,0.00
2013-10-20,46.2,40.3,32.2,38.2,32.1,22.5,96,75,40,30.23,29.84,10,1,10,0.31
2013-10-21,59.2,46.7,30.0,33.3,27.5,21.7,96,54,25,30.30,30.04,21,4,21,0.01
2013-10-22,65.2,51.5,40.6,35.5,31.2,23.8,68,47,27,30.22,30.04,16,2,16,0.00
2013-10-23,64.2,51.6,41.3,35.7,31.5,26.1,72,48,29,30.21,30.02,13,2,13,0.00
2013-10-24,53.9,42.3,32.8,39.0,34.7,30.2,93,76,53,30.36,30.20,10,1,10,0.00
2013-10-25,69.1,50.5,36.0,41.5,32.8,24.3,93,58,21,30.30,30.03,10,2,10,0.00
2013-10-26,61.5,49.6,38.2,36.5,32.6,28.5,71,53,34,30.35,30.10,11,2,11,0.00
2013-10-27,70.3,54.3,39.9,37.3,29.5,21.0,72,42,16,30.10,29.74,7,1,10,0.00
2013-10-28,55.7,36.8,31.0,33.2,30.3,23.0,99,81,29,30.21,29.75,11,1,11,0.10
2013-10-29,37.2,33.7,31.2,34.3,31.7,30.1,96,92,82,30.19,30.03,9,1,9,0.07
2013-10-30,45.7,35.9,29.1,38.7,32.7,27.8,96,89,63,30.05,29.88,8,1,8,0.25
2013-10-31,55.3,43.0,31.5,32.0,25.1,17.1,87,53,25,29.95,29.81,31,4,31,0.00
2013-11-1,55.0,44.1,36.3,31.4,24.6,16.8,72,48,25,30.30,29.85,27,6,27,0.00
2013-11-2,54.2,41.2,28.8,31.3,25.2,19.2,78,54,33,30.32,29.77,7,1,7,0.00
2013-11-3,68.0,50.9,37.0,30.2,21.3,13.4,61,34,13,29.79,29.47,24,4,24,0.00
2013-11-4,41.2,35.1,29.7,27.8,21.2,14.0,84,58,35,30.13,29.78,22,3,22,0.00
2013-11-5,45.4,34.2,21.4,23.6,10.9,-1.9,68,42,15,30.31,30.02,22,6,22,0.00
2013-11-6,51.9,35.2,19.7,21.6,15.0,5.9,72,47,22,30.46,30.26,29,3,29,0.00
2013-11-7,55.3,40.6,30.0,29.2,22.6,17.0,69,50,27,30.55,30.02,11,2,11,0.00
2013-11-8,60.7,46.6,29.3,28.8,23.5,20.1,74,43,23,30.02,29.78,13,1,13,0.00
2013-11-9,52.9,42.7,35.3,31.9,28.1,22.2,73,57,37,30.33,29.98,10,2,10,0.00
2013-11-10,65.0,48.0,33.1,33.9,26.7,17.8,77,48,20,30.35,30.11,19,2,19,0.00
2013-11-11,56.2,40.4,29.7,31.7,25.7,16.5,88,59,27,30.74,30.11,15,2,15,0.00
2013-11-12,53.3,37.1,25.3,36.4,29.0,22.8,96,75,46,30.84,30.44,11,2,11,0.00
2013-11-13,64.3,51.0,35.3,30.6,20.9,13.8,75,33,15,30.44,29.89,14,1,14,0.00
2013-11-14,55.0,46.8,38.8,35.9,30.3,19.3,75,54,26,30.08,29.76,23,4,23,0.00
2013-11-15,61.8,44.0,31.5,33.5,26.2,10.1,84,55,15,29.77,29.45,24,3,24,0.00
2013-11-16,55.9,41.7,31.2,30.1,22.0,16.5,85,48,23,29.58,29.28,40,6,40,0.00
2013-11-17,54.7,40.3,28.7,29.5,16.3,7.5,91,42,17,30.16,29.55,33,4,33,0.00
2013-11-18,56.0,39.6,26.1,26.5,20.2,13.8,64,47,27,30.29,30.01,7,2,12,0.00
2013-11-19,52.6,42.0,33.5,26.6,21.3,15.4,61,44,28,30.02,29.77,14,1,14,0.00
2013-11-20,55.9,44.4,27.5,31.0,25.8,18.9,75,50,27,30.09,29.75,23,2,23,0.00
2013-11-21,27.5,16.3,11.7,20.8,11.4,6.9,88,81,66,30.93,30.09,7,1,7,0.00
2013-11-22,29.4,22.1,12.3,21.0,12.8,-0.6,88,70,29,30.92,30.75,9,1,9,0.11
2013-11-23,35.5,27.1,21.6,22.9,17.7,-0.5,80,68,29,30.87,30.53,13,2,13,0.05
2013-11-24,41.9,27.8,18.6,24.4,18.7,9.9,86,71,27,30.53,30.11,22,3,22,0.02
2013-11-25,42.8,37.2,31.0,28.5,21.2,11.9,81,54,29,30.43,30.11,19,3,19,0.00
2013-11-26,52.3,38.1,28.2,25.5,21.0,14.4,77,52,24,30.52,30.32,18,3,18,0.00
2013-11-27,59.5,41.2,26.9,30.4,24.3,18.4,80,54,23,30.33,30.04,5,1,5,0.00
2013-11-28,44.2,36.0,29.0,28.0,23.6,20.0,79,61,45,30.35,30.13,7,1,7,0.00
2013-11-29,58.7,42.6,28.1,29.6,22.3,17.5,81,48,23,30.25,30.11,7,1,7,0.00
2013-11-30,55.0,42.4,31.8,25.2,20.0,16.6,66,42,23,30.28,30.11,8,1,8,0.00
2013-12-1,53.5,43.7,32.4,26.1,21.6,18.3,64,43,26,30.23,29.78,28,2,28,0.00
2013-12-2,60.4,50.4,40.1,27.2,21.3,16.3,52,32,21,29.81,29.46,20,3,20,0.00
2013-12-3,48.9,32.1,9.7,29.5,16.3,5.3,88,57,30,30.00,29.44,16,3,16,0.00
2013-12-4,12.1,6.5,-1.6,7.4,-0.2,-9.1,87,74,53,30.53,30.00,16,2,16,0.00
2013-12-5,10.0,0.4,-8.9,0.8,-6.0,-15.2,84,74,58,30.65,30.46,7,1,7,0.00
2013-12-6,5.6,-1.3,-7.9,-2.5,-9.9,-99.9,85,71,61,30.82,30.61,7,-19,7,0.00
2013-12-7,9.9,1.7,-7.9,2.2,-4.8,-14.5,85,74,65,30.74,30.19,7,1,7,0.00
2013-12-8,14.3,6.9,2.2,6.2,0.8,-4.6,86,76,65,30.48,30.15,9,1,9,0.00
2013-12-9,18.3,6.6,-4.1,3.7,-3.4,-12.1,81,64,40,30.62,30.41,11,1,11,0.00
2013-12-10,40.1,23.1,7.7,16.2,6.4,-4.6,67,49,29,30.47,30.08,23,3,23,0.00
2013-12-11,26.0,18.6,10.5,17.6,12.0,5.7,86,75,59,30.68,30.47,9,2,10,0.00
2013-12-12,44.7,29.7,15.1,24.3,13.4,5.5,75,52,29,30.59,30.03,7,1,7,0.04
2013-12-13,46.8,35.5,26.6,22.2,14.8,4.8,61,43,23,30.23,29.95,13,2,13,0.04
2013-12-14,41.5,33.3,23.3,21.4,15.6,9.9,66,48,36,30.42,30.23,13,2,13,0.00
2013-12-15,53.5,39.1,25.8,25.3,17.6,7.5,64,44,17,30.34,30.02,35,3,35,0.00
2013-12-16,59.9,50.7,38.4,23.8,14.7,7.5,38,24,14,30.22,29.97,33,5,33,0.00
2013-12-17,58.6,44.8,32.7,25.3,16.9,9.4,52,33,18,30.38,30.01,13,2,13,0.00
2013-12-18,57.6,48.4,42.1,28.2,15.9,10.0,36,27,20,30.01,29.65,13,1,13,0.00
2013-12-19,44.3,31.9,15.6,25.8,17.7,9.4,86,58,28,30.12,29.59,15,2,15,0.00
2013-12-20,24.4,19.3,15.2,20.0,16.0,11.2,92,87,78,30.12,29.91,10,1,10,0.00
2013-12-21,31.5,23.5,12.4,27.4,19.3,8.9,93,84,65,30.08,29.84,14,2,14,0.00
2013-12-22,35.9,26.6,16.9,21.6,15.6,9.5,88,66,33,30.48,30.07,18,2,18,0.00
2013-12-23,30.0,21.4,13.3,22.5,17.3,9.9,91,84,69,30.58,30.31,6,1,6,0.01
2013-12-24,51.0,31.9,22.2,30.1,17.7,5.2,87,58,25,30.50,30.11,35,6,35,0.00
2013-12-25,41.1,29.5,20.8,19.7,11.5,4.6,68,48,25,30.62,30.33,13,2,13,0.00
2013-12-26,51.4,39.4,27.9,19.0,11.5,3.5,56,33,19,30.46,30.21,17,2,17,0.00
2013-12-27,56.7,42.1,30.6,24.3,18.1,12.4,58,39,22,30.39,30.06,8,1,8,0.00
2013-12-28,55.0,37.3,19.4,26.4,20.0,14.5,86,52,23,30.33,29.87,21,3,21,0.00
2013-12-29,33.5,23.5,12.3,22.3,14.0,7.8,94,68,41,30.52,30.13,11,1,11,0.04
2013-12-30,45.9,35.1,24.7,17.5,12.8,9.4,62,41,25,30.35,30.14,19,3,19,0.00
2013-12-31,54.2,40.7,25.4,23.8,18.3,13.3,64,42,25,30.18,29.90,12,2,12,0.00
2014-1-1,40.5,32.2,20.5,30.0,22.6,15.9,89,69,42,30.49,29.88,30,2,30,0.00
2014-1-2,41.2,27.7,15.1,24.1,18.2,10.9,90,69,37,30.53,30.17,9,2,9,0.01